HYPERVIEW 1G (RS66S)

Last updated on Mon Sep 15 2025 00:03:09 GMT+0000 (Coordinated Universal Time)

1 61772U 24199AP 25257.27217086 .00019989 00000+0 50875-3 0 9995 2 61772 97.3370 126.1052 0011773 195.2339 164.8554 15.39546979 91812
UTC large
Height (km)
Speed (km/s)
/
Latitude / Longitude
Inclination (degrees)
Orbital Period (minutes)
Azimuth
Elevation
Range (km)
Doppler Factor

Next 0 passes for location: London (51.5072 / 0.1276)

Sorry there are no passes over London.